Location: Carnoy
(49.9849°N, 2.7558°E)
Time: 13:40:35
(UTC+00:00)

Timation 2 Rocket - Pass Details

Date: 24 January 2020
Orbit: 904 x 1077 km, 70.0° (Epoch: 27 February)

Event Time Altitude Azimuth Distance (km) Brightness Sun altitude
Rises 17:24:32 0° 219° (SW) 3,562 8.1 -9.0°
Reaches altitude 10° 17:27:01 10° 223° (SW) 2,641 7.4 -9.3°
Maximum altitude 17:33:07 66° 305° (NW) 1,052 4.4 -10.3°
Drops below altitude 10° 17:39:31 10° 28° (NNE) 2,772 6.0 -11.3°
Enters shadow 17:41:13 - 30° (NNE) 3,395 6.4 -11.5°
